Lumberton, NC

5:53 AM EST on February 27, 2017 (GMT -0500)
Lumberton Municipal

Weather History for KLBT - February, 2013

Change the Weather History Date:

Wednesday, February 27, 2013

  Actual Average Record
Temperature  
Mean Temperature 51 °F 50 °F  
Max Temperature 59 °F 61 °F 80 °F (2011)
Min Temperature 43 °F 38 °F 22 °F (2006)
Degree Days  
Heating Degree Days 14 16  
Month to date heating degree days 528 496  
Since 1 July heating degree days 2052 2215  
Cooling Degree Days 0 0  
Month to date cooling degree days 0 0  
Year to date cooling degree days 4 1  
Moisture  
Dew Point 41 °F    
Average Humidity 76    
Maximum Humidity 100    
Minimum Humidity 51    
Precipitation  
Precipitation 0.00 in 0.11 in 0.74 in (2004)
Month to date precipitation 4.09 2.79  
Year to date precipitation 5.57 5.76  
Sea Level Pressure  
Sea Level Pressure 29.76 in    
Wind  
Wind Speed 9 mph (WSW)    
Max Wind Speed 17 mph    
Max Gust Speed 22 mph    
Visibility 10 miles    
Events      
T = Trace of Precipitation, MM = Missing Value Source: NWS Daily Summary

Daily Weather History Graph

Daily Weather History Graph

Search for Another Location

Airport or City:

Trip Planner

Search our weather history database for the weather conditions in past years. The results will help you decide how hot, cold, wet, or windy it might be!

Date:

Astronomy

Feb. 27, 2013 Rise Set
Actual Time 6:47 AM EST 6:10 PM EST
Civil Twilight 6:22 AM EST 6:36 PM EST
Nautical Twilight 5:53 AM EST 7:05 PM EST
Astronomical Twilight 5:23 AM EST 7:34 PM EST
Moon 8:21 PM EST 7:28 AM EST
Length of Visible Light 12h 13m
Length of Day
11h 23m
Waning Gibbous, 96% of the Moon is Illuminated
Feb 27
Waning Gibbous
Mar 4
Last Quarter
Mar 11
New
Mar 19
First Quarter
Mar 27
Full

Hourly Weather History & Observations

Time (EST) Temp. Windchill Dew Point Humidity Pressure Visibility Wind Dir Wind Speed Gust Speed Precip Events Conditions
12:54 AM 46.0 °F 42.5 °F 45.0 °F 96% 29.69 in 7.0 mi WSW 6.9 mph - N/A   Clear
1:54 AM 48.0 °F - 46.0 °F 93% 29.71 in 9.0 mi WSW 12.7 mph - 0.01 in   Clear
2:54 AM 46.0 °F 41.4 °F 44.1 °F 93% 29.71 in 10.0 mi WSW 9.2 mph - N/A   Clear
3:54 AM 46.0 °F 40.6 °F 42.1 °F 86% 29.70 in 10.0 mi WSW 11.5 mph - N/A   Clear
4:54 AM 45.0 °F 38.9 °F 39.9 °F 82% 29.71 in 10.0 mi SW 12.7 mph 18.4 mph N/A   Clear
5:54 AM 44.1 °F 39.0 °F 39.0 °F 82% 29.74 in 10.0 mi WSW 9.2 mph - N/A   Clear
6:54 AM 43.0 °F 36.8 °F 37.9 °F 82% 29.77 in 10.0 mi WSW 11.5 mph - N/A   Clear
7:54 AM 44.1 °F 38.6 °F 39.0 °F 82% 29.80 in 10.0 mi WSW 10.4 mph - N/A   Clear
8:54 AM 46.9 °F - 39.0 °F 74% 29.83 in 10.0 mi WSW 10.4 mph - N/A   Clear
10:54 AM 51.1 °F - 39.9 °F 66% 29.84 in 10.0 mi WNW 12.7 mph - N/A   Partly Cloudy
11:54 AM 53.1 °F - 39.9 °F 61% 29.82 in 10.0 mi West 8.1 mph - N/A   Clear
1:54 PM 57.0 °F - 41.0 °F 55% 29.78 in 10.0 mi SW 11.5 mph - N/A   Clear
2:54 PM 57.9 °F - 39.9 °F 51% 29.77 in 10.0 mi West 10.4 mph - N/A   Clear
3:54 PM 57.9 °F - 41.0 °F 53% 29.76 in 10.0 mi WSW 12.7 mph - N/A   Clear
4:54 PM 57.0 °F - 41.0 °F 55% 29.75 in 10.0 mi SW 9.2 mph - N/A   Clear
5:54 PM 55.0 °F - 42.1 °F 62% 29.76 in 10.0 mi SW 5.8 mph - N/A   Clear
6:54 PM 52.0 °F - 41.0 °F 66% 29.77 in 10.0 mi SSW 3.5 mph - N/A   Clear
7:54 PM 50.0 °F - 41.0 °F 71% 29.77 in 10.0 mi SSW 5.8 mph - N/A   Clear
9:54 PM 48.9 °F - 41.0 °F 74% 29.77 in 10.0 mi SW 8.1 mph - N/A   Clear
10:54 PM 48.0 °F - 41.0 °F 77% 29.76 in 10.0 mi SW 6.9 mph - N/A   Clear
11:54 PM 48.9 °F - 39.9 °F 71% 29.75 in 10.0 mi SW 10.4 mph - N/A   Clear